Time,TemperatureF,DewpointF,PressureIn,WindDirection,WindDirectionDegrees,WindSpeedMPH,WindSpeedGustMPH,Humidity,HourlyPrecipIn,Conditions,Clouds,dailyrainin,SoftwareType,DateUTC
2013-01-31 00:01:00,59.0,55.0,29.59,North,0,0.0,0.0,88,0.00,,,0.00,,2013-01-31 05:01:00,
2013-01-31 00:03:00,59.0,55.0,29.59,North,0,0.0,0.0,88,0.00,,,0.00,,2013-01-31 05:03:00,
2013-01-31 00:11:00,59.0,55.0,29.59,North,0,0.0,0.0,88,0.00,,,0.00,,2013-01-31 05:11:00,
2013-01-31 00:22:00,59.0,55.0,29.59,North,0,0.0,0.0,88,0.00,,,0.00,,2013-01-31 05:22:00,
2013-01-31 00:32:00,59.0,55.0,29.59,North,0,0.0,0.0,88,0.00,,,0.00,,2013-01-31 05:32:00,
2013-01-31 00:42:00,59.0,55.0,29.59,North,0,0.0,0.0,88,0.00,,,0.00,,2013-01-31 05:42:00,
2013-01-31 00:52:00,59.0,55.0,29.59,North,0,0.0,0.0,88,0.00,,,0.00,,2013-01-31 05:52:00,
2013-01-31 09:22:00,57.0,54.0,29.09,North,0,0.0,12.0,91,0.00,,,0.00,,2013-01-31 14:22:00,
2013-01-31 09:32:00,57.0,54.0,29.09,North,0,0.0,12.0,91,0.00,,,0.00,,2013-01-31 14:32:00,
2013-01-31 09:41:00,56.0,53.0,29.12,North,0,0.0,12.0,91,0.00,,,0.00,,2013-01-31 14:41:00,
2013-01-31 09:42:00,57.0,54.0,29.09,North,0,0.0,12.0,91,0.00,,,0.00,,2013-01-31 14:42:00,
2013-01-31 09:52:00,56.0,53.0,29.12,North,0,0.0,12.0,91,0.00,,,0.00,,2013-01-31 14:52:00,
2013-01-31 10:03:00,56.0,53.0,29.12,North,0,0.0,12.0,91,0.00,,,0.00,,2013-01-31 15:03:00,
2013-01-31 10:12:00,56.0,53.0,29.12,North,0,0.0,12.0,91,0.00,,,0.00,,2013-01-31 15:12:00,
2013-01-31 10:23:00,56.0,53.0,29.12,North,0,0.0,12.0,91,0.00,,,0.00,,2013-01-31 15:23:00,
2013-01-31 10:32:00,56.0,53.0,29.12,North,0,0.0,12.0,91,0.00,,,0.00,,2013-01-31 15:32:00,
2013-01-31 10:52:00,52.0,49.0,29.15,ESE,112,4.0,7.0,88,0.00,,,0.00,,2013-01-31 15:52:00,
2013-01-31 11:04:00,51.0,47.0,29.15,West,270,2.0,7.0,87,0.00,,,0.00,,2013-01-31 16:04:00,
2013-01-31 11:13:00,51.0,47.0,29.15,West,270,2.0,7.0,87,0.00,,,0.00,,2013-01-31 16:13:00,
2013-01-31 11:22:00,51.0,47.0,29.15,West,270,2.0,7.0,87,0.00,,,0.00,,2013-01-31 16:22:00,
2013-01-31 11:33:00,49.0,43.0,29.18,WSW,248,4.0,8.0,79,0.00,,,0.00,,2013-01-31 16:33:00,
2013-01-31 11:42:00,49.0,43.0,29.18,WSW,248,4.0,8.0,79,0.00,,,0.00,,2013-01-31 16:42:00,
2013-01-31 11:52:00,50.0,43.0,29.18,WNW,292,8.0,8.0,77,0.00,,,0.00,,2013-01-31 16:52:00,
2013-01-31 12:03:00,49.0,42.0,29.18,WSW,248,7.0,20.0,76,0.00,,,0.00,,2013-01-31 17:03:00,
2013-01-31 12:12:00,49.0,42.0,29.18,WSW,248,7.0,20.0,76,0.00,,,0.00,,2013-01-31 17:12:00,
2013-01-31 12:23:00,49.0,41.0,29.21,NW,315,0.0,14.0,75,0.00,,,0.00,,2013-01-31 17:23:00,
2013-01-31 12:32:00,49.0,41.0,29.21,WSW,248,0.0,8.0,75,0.00,,,0.00,,2013-01-31 17:32:00,
2013-01-31 12:43:00,49.0,41.0,29.21,WSW,248,0.0,8.0,75,0.00,,,0.00,,2013-01-31 17:43:00,
2013-01-31 12:53:00,48.0,40.0,29.21,WSW,248,5.0,14.0,75,0.00,,,0.00,,2013-01-31 17:53:00,
2013-01-31 13:03:00,48.0,40.0,29.21,WNW,292,5.0,12.0,75,0.00,,,0.00,,2013-01-31 18:03:00,
2013-01-31 13:12:00,48.0,40.0,29.21,South,180,6.0,14.0,74,0.00,,,0.00,,2013-01-31 18:12:00,
2013-01-31 13:22:00,48.0,40.0,29.21,South,180,6.0,14.0,74,0.00,,,0.00,,2013-01-31 18:22:00,
2013-01-31 13:32:00,48.0,40.0,29.23,WSW,248,10.0,14.0,73,0.00,,,0.00,,2013-01-31 18:32:00,
2013-01-31 13:43:00,48.0,40.0,29.23,WSW,248,10.0,14.0,73,0.00,,,0.00,,2013-01-31 18:43:00,
2013-01-31 13:52:00,47.0,39.0,29.23,NE,45,8.0,8.0,73,0.00,,,0.00,,2013-01-31 18:52:00,
2013-01-31 14:02:00,47.0,38.0,29.26,WSW,248,0.0,11.0,72,0.00,,,0.00,,2013-01-31 19:02:00,
2013-01-31 14:12:00,47.0,38.0,29.26,WSW,248,0.0,11.0,72,0.00,,,0.00,,2013-01-31 19:12:00,
2013-01-31 14:22:00,47.0,38.0,29.26,West,270,0.0,14.0,71,0.00,,,0.00,,2013-01-31 19:22:00,
2013-01-31 14:32:00,47.0,38.0,29.26,NW,315,4.0,12.0,70,0.00,,,0.00,,2013-01-31 19:32:00,
2013-01-31 14:42:00,47.0,38.0,29.26,NW,315,4.0,12.0,70,0.00,,,0.00,,2013-01-31 19:42:00,
2013-01-31 14:52:00,46.0,36.0,29.29,SW,225,7.0,10.0,69,0.00,,,0.00,,2013-01-31 19:52:00,
2013-01-31 15:02:00,46.0,36.0,29.29,WNW,292,7.0,10.0,69,0.00,,,0.00,,2013-01-31 20:02:00,
2013-01-31 15:11:00,46.0,36.0,29.32,WSW,248,0.0,10.0,69,0.00,,,0.00,,2013-01-31 20:11:00,
2013-01-31 15:22:00,46.0,36.0,29.32,WSW,248,0.0,10.0,69,0.00,,,0.00,,2013-01-31 20:22:00,
2013-01-31 15:32:00,46.0,36.0,29.32,WSW,248,0.0,11.0,68,0.00,,,0.00,,2013-01-31 20:32:00,
2013-01-31 15:42:00,45.0,35.0,29.32,WSW,248,7.0,15.0,68,0.00,,,0.00,,2013-01-31 20:42:00,
2013-01-31 15:52:00,45.0,35.0,29.32,WSW,248,7.0,15.0,68,0.00,,,0.00,,2013-01-31 20:52:00,
2013-01-31 16:02:00,45.0,35.0,29.35,South,180,7.0,14.0,68,0.00,,,0.00,,2013-01-31 21:02:00,
2013-01-31 16:12:00,44.0,34.0,29.35,West,270,0.0,6.0,67,0.00,,,0.00,,2013-01-31 21:12:00,
2013-01-31 16:22:00,44.0,34.0,29.35,West,270,0.0,6.0,67,0.00,,,0.00,,2013-01-31 21:22:00,
2013-01-31 16:32:00,44.0,34.0,29.35,SSW,202,6.0,14.0,67,0.00,,,0.00,,2013-01-31 21:32:00,
2013-01-31 16:42:00,44.0,34.0,29.35,SSW,202,6.0,14.0,67,0.00,,,0.00,,2013-01-31 21:42:00,
2013-01-31 16:52:00,43.0,33.0,29.38,SW,225,4.0,6.0,67,0.00,,,0.00,,2013-01-31 21:52:00,
2013-01-31 17:03:00,43.0,33.0,29.38,WSW,248,4.0,11.0,67,0.00,,,0.00,,2013-01-31 22:03:00,
2013-01-31 17:11:00,42.0,32.0,29.41,SW,225,12.0,12.0,68,0.00,,,0.00,,2013-01-31 22:11:00,
2013-01-31 17:22:00,42.0,32.0,29.41,SW,225,12.0,12.0,68,0.00,,,0.00,,2013-01-31 22:22:00,
2013-01-31 17:33:00,42.0,32.0,29.41,SW,225,0.0,12.0,67,0.00,,,0.00,,2013-01-31 22:33:00,
2013-01-31 17:42:00,42.0,32.0,29.41,SW,225,0.0,12.0,67,0.00,,,0.00,,2013-01-31 22:42:00,
2013-01-31 17:52:00,42.0,32.0,29.41,WSW,248,0.0,9.0,67,0.00,,,0.00,,2013-01-31 22:52:00,
2013-01-31 18:02:00,42.0,32.0,29.44,WNW,292,8.0,8.0,67,0.00,,,0.00,,2013-01-31 23:02:00,
2013-01-31 18:12:00,41.0,31.0,29.44,WNW,292,0.0,13.0,67,0.00,,,0.00,,2013-01-31 23:12:00,
2013-01-31 18:22:00,41.0,31.0,29.44,WNW,292,0.0,13.0,67,0.00,,,0.00,,2013-01-31 23:22:00,
2013-01-31 18:32:00,41.0,31.0,29.44,WSW,248,3.0,10.0,67,0.00,,,0.00,,2013-01-31 23:32:00,
2013-01-31 18:42:00,41.0,31.0,29.44,WSW,248,3.0,10.0,67,0.00,,,0.00,,2013-01-31 23:42:00,
2013-01-31 18:52:00,41.0,31.0,29.47,South,180,0.0,14.0,66,0.00,,,0.00,,2013-01-31 23:52:00,
2013-01-31 19:01:00,41.0,31.0,29.47,SW,225,0.0,14.0,66,0.00,,,0.00,,2013-02-01 00:01:00,
2013-01-31 19:11:00,41.0,31.0,29.47,SW,225,0.0,14.0,66,0.00,,,0.00,,2013-02-01 00:11:00,
2013-01-31 19:22:00,41.0,31.0,29.47,WNW,292,4.0,8.0,66,0.00,,,0.00,,2013-02-01 00:22:00,
2013-01-31 19:32:00,41.0,31.0,29.50,WSW,248,4.0,8.0,66,0.00,,,0.00,,2013-02-01 00:32:00,
2013-01-31 19:42:00,41.0,31.0,29.50,WSW,248,4.0,8.0,66,0.00,,,0.00,,2013-02-01 00:42:00,
2013-01-31 19:52:00,41.0,30.0,29.50,WSW,248,4.0,11.0,65,0.00,,,0.00,,2013-02-01 00:52:00,
2013-01-31 20:01:00,41.0,30.0,29.50,SW,225,0.0,8.0,65,0.00,,,0.00,,2013-02-01 01:01:00,
2013-01-31 20:11:00,41.0,30.0,29.53,West,270,0.0,6.0,65,0.00,,,0.00,,2013-02-01 01:11:00,
2013-01-31 20:21:00,41.0,30.0,29.53,West,270,0.0,6.0,65,0.00,,,0.00,,2013-02-01 01:21:00,
2013-01-31 20:32:00,40.0,29.0,29.53,WSW,248,0.0,12.0,65,0.00,,,0.00,,2013-02-01 01:32:00,
2013-01-31 20:42:00,40.0,29.0,29.53,WSW,248,0.0,12.0,65,0.00,,,0.00,,2013-02-01 01:42:00,
2013-01-31 20:52:00,40.0,29.0,29.53,WSW,248,0.0,8.0,64,0.00,,,0.00,,2013-02-01 01:52:00,
2013-01-31 21:02:00,40.0,28.0,29.53,West,270,5.0,8.0,62,0.00,,,0.00,,2013-02-01 02:02:00,
2013-01-31 21:11:00,40.0,28.0,29.53,West,270,5.0,8.0,62,0.00,,,0.00,,2013-02-01 02:11:00,
2013-01-31 21:21:00,40.0,27.0,29.56,WNW,292,2.0,8.0,59,0.00,,,0.00,,2013-02-01 02:21:00,
2013-01-31 21:32:00,39.0,25.0,29.56,West,270,0.0,8.0,58,0.00,,,0.00,,2013-02-01 02:32:00,
2013-01-31 21:42:00,39.0,25.0,29.56,West,270,0.0,8.0,58,0.00,,,0.00,,2013-02-01 02:42:00,
2013-01-31 21:52:00,39.0,25.0,29.56,WNW,292,12.0,12.0,58,0.00,,,0.00,,2013-02-01 02:52:00,
2013-01-31 22:02:00,39.0,25.0,29.56,WNW,292,12.0,12.0,58,0.00,,,0.00,,2013-02-01 03:02:00,
2013-01-31 22:12:00,39.0,25.0,29.56,WNW,292,12.0,12.0,58,0.00,,,0.00,,2013-02-01 03:12:00,
2013-01-31 22:21:00,38.0,24.0,29.59,SW,225,5.0,6.0,57,0.00,,,0.00,,2013-02-01 03:21:00,
2013-01-31 22:33:00,38.0,24.0,29.59,SW,225,5.0,6.0,57,0.00,,,0.00,,2013-02-01 03:33:00,
2013-01-31 22:42:00,38.0,24.0,29.59,SW,225,5.0,6.0,57,0.00,,,0.00,,2013-02-01 03:42:00,
2013-01-31 22:52:00,36.0,22.0,29.59,SW,225,0.0,10.0,57,0.00,,,0.00,,2013-02-01 03:52:00,
2013-01-31 23:02:00,36.0,22.0,29.62,WSW,248,3.0,7.0,57,0.00,,,0.00,,2013-02-01 04:02:00,
2013-01-31 23:11:00,36.0,22.0,29.62,West,270,0.0,13.0,57,0.00,,,0.00,,2013-02-01 04:11:00,
2013-01-31 23:21:00,36.0,22.0,29.62,West,270,0.0,13.0,57,0.00,,,0.00,,2013-02-01 04:21:00,
2013-01-31 23:32:00,36.0,22.0,29.62,West,270,5.0,11.0,57,0.00,,,0.00,,2013-02-01 04:32:00,
2013-01-31 23:41:00,36.0,22.0,29.62,West,270,5.0,11.0,57,0.00,,,0.00,,2013-02-01 04:41:00,
2013-01-31 23:52:00,36.0,21.0,29.62,NNE,22,5.0,8.0,55,0.00,,,0.00,,2013-02-01 04:52:00,